Regional Weather Roundup
Issued by NWS

Home | Current Version | Previous Version | Graphics & Text | Print | Product List | Glossary On
Versions: 1 2 3 4 5 6 7 8 9 10 11 12 13 14 15 16 17 18 19 20 21 22 23 24 25 26 27 28
000
ASUS45 KCYS 211010
RWRWY

WYOMING REGIONAL WEATHER ROUNDUP
NATIONAL WEATHER SERVICE CHEYENNE WY
400 AM MDT SAT APR 21 2018

NOTE:  "FAIR" INDICATES FEW OR NO CLOUDS BELOW 12,000 FEET
WITH NO SIGNIFICANT WEATHER AND/OR OBSTRUCTIONS TO VISIBILITY.

WYZ001-211100-
YELLOWSTONE NATIONAL PARK

CITY           SKY/WX    TMP DP  RH WIND       PRES   REMARKS
LK YELLOWSTONE   N/A     22  19  89 CALM      30.22S
W YELLOWSTONE  NOT AVBL

$$
WYZ002>013-054>058-071-098>099-211100-
NORTHERN WYOMING

CITY           SKY/WX    TMP DP  RH WIND       PRES   REMARKS
JACKSON        FAIR      30  24  78 N12       30.18R WCI  20
CODY           FAIR      41  30  65 SW7       30.12S
GREYBULL       FAIR      39  35  86 SE5       30.08S
WORLAND        FAIR      35  32  88 SW5       30.09R WCI  31
SHERIDAN       FAIR      37  32  82 S3        30.10S
BUFFALO        FAIR      35  33  92 S8        30.12F WCI  29
GILLETTE       CLOUDY    38  34  85 S15       30.15S WCI  29
HULETT         PTSUNNY   37  32  81 S14G25    30.18R WCI  29
NEWCASTLE      DRIZZLE   36  34  93 SE13G20   30.21S WCI  27

$$
WYZ014>020-022>026-101>103-211100-
CENTRAL WYOMING

CITY           SKY/WX    TMP DP  RH WIND       PRES   REMARKS
BIG PINEY      FAIR      23  20  88 CALM      30.18R
PINEDALE       FAIR      28  28 100 W6        30.19S WCI  22
DUBOIS         FAIR      30  23  74 NW13      30.17S WCI  20
LANDER         FAIR      34  29  82 CALM      30.13R
RIVERTON       FAIR      35  32  88 E5        30.14S WCI  31
CASPER         CLOUDY    36  36 100 CALM      30.15S FOG
DOUGLAS        CLOUDY    34  34 100 SE10      30.17S WCI  26

$$
WYZ021-027>030-104>119-211100-
SOUTHERN WYOMING

CITY           SKY/WX    TMP DP  RH WIND       PRES   REMARKS
EVANSTON       FAIR      36  24  62 CALM      30.18R
KEMMERER       FAIR      30  28  93 W3        30.18S
FORT BRIDGER   FAIR      34  34 100 CALM      30.20S
ROCK SPRINGS   CLOUDY    36  31  82 E8        30.18S WCI  30
DIXON          CLOUDY    37  29  74 N15       30.14R WCI  28
RAWLINS          N/A    N/A N/A N/A MISG      30.14R
SARATOGA       CLOUDY    32  32 100 NW3       30.14R
LARAMIE        CLOUDY    26  26 100 NW3       30.10S
CHEYENNE       CLOUDY    31  31 100 E6        30.13R FOG     WCI  25
TORRINGTON     LGT SNOW  34  34 100 E7        30.19S FOG     WCI  28
PINE BLUFFS    CLOUDY    32  32 100 MISG      30.15F

$$




USA.gov is the U.S. government's official web portal to all federal, state and local government web resources and services.